Weather reports worldwide

Advertisment
Lulea/Kallax, Sweden (2186): temperature & dewpoint: 14.10.2020 16:00:00 - 20.10.2020 16:00:00 (CEST)Lulea/Kallax, Sweden (2186): wind speed & gusts: 14.10.2020 16:00:00 - 20.10.2020 16:00:00 (CEST)Lulea/Kallax, Sweden (2186): wind direction: 14.10.2020 16:00:00 - 20.10.2020 16:00:00 (CEST)Lulea/Kallax, Sweden (2186): reduced air pressure: 14.10.2020 16:00:00 - 20.10.2020 16:00:00 (CEST)Lulea/Kallax, Sweden (2186): visibility: 14.10.2020 16:00:00 - 20.10.2020 16:00:00 (CEST)Lulea/Kallax, Sweden (2186): precipitation: 14.10.2020 16:00:00 - 20.10.2020 16:00:00 (CEST)
Date & Time tt [°C] td [°C] ff [km/h] ff [kn] fx [km/h] fx [kn] dd ppp [hPa] vv [km] rr [mm]
20.10.2020 16:00:00 -1,8 -3,7 9 5 14 8 NW 1018,2 10 0,0
20.10.2020 15:00:00 -1,7 -3,9 9 5 18 10 NNW 1018,6 10 0,0
20.10.2020 14:00:00 -2,1 -4,3 13 7 18 10 NW 1018,6 10 0,0
20.10.2020 13:00:00 -2,5 -4,7 13 7 22 12 NW 1018,5 10 0,0
20.10.2020 12:00:00 -2,6 -4,9 13 7 22 12 NNW 1018,4 10 0,0
20.10.2020 11:00:00 -3,0 -5,3 13 7 22 12 NNW 1018,1 10 0,0
20.10.2020 10:00:00 -3,3 -5,3 15 8 22 12 N 1017,9 10 0,0
20.10.2020 09:00:00 -4,8 -6,2 13 7 18 10 N 1018,0 10 0,0
20.10.2020 08:00:00 -4,2 -5,4 9 5 18 10 NW 1017,8 10 0,0
20.10.2020 07:00:00 -4,1 -5,9 11 6 18 10 NNW 1017,4 10 0,0
20.10.2020 06:00:00 -3,4 -5,4 11 6 22 12 N 1017,2 50 0,0
20.10.2020 05:00:00 -3,2 -5,4 16 9 25 14 N 1017,2 10 0,0
20.10.2020 04:00:00 -3,2 -5,2 15 8 22 12 NNW 1017,1 10 0,0
20.10.2020 03:00:00 -3,6 -5,1 13 7 22 12 NNW 1017,1 10 0,0
20.10.2020 02:00:00 -2,8 -4,7 18 10 25 14 NNW 1016,8 10 0,0
20.10.2020 01:00:00 -2,7 -4,4 15 8 22 12 N 1016,5 10 0,0
20.10.2020 00:00:00 -2,6 -4,3 11 6 18 10 N 1016,2 10 0,0
19.10.2020 23:00:00 -3,0 -4,4 15 8 22 12 NNW 1015,9 10 0,0
19.10.2020 22:00:00 -2,9 -4,3 15 8 22 12 NNW 1015,7 10 0,0
19.10.2020 21:00:00 -2,0 -3,6 13 7 25 14 NNW 1015,3 10 0,0
19.10.2020 20:00:00 -1,2 -2,9 15 8 25 14 NNW 1014,8 10 0,0
19.10.2020 19:00:00 -1,2 -2,9 15 8 25 14 N 1014,6 10 0,0
19.10.2020 18:00:00 -0,5 -2,6 13 7 29 16 N 1014,2 10 0,0
19.10.2020 17:00:00 -0,4 -2,5 15 8 29 16 N 1013,8 10 0,0
19.10.2020 16:00:00 0,4 -2,0 16 9 29 16 N 1013,0 10 0,0
19.10.2020 15:00:00 0,8 -1,8 16 9 29 16 NNE 1012,1 10 0,0
19.10.2020 14:00:00 0,9 -1,5 16 9 29 16 NNE 1011,2 10 0,0
19.10.2020 13:00:00 0,9 -1,3 15 8 32 18 NNE 1010,5 10 0,0
19.10.2020 12:00:00 0,8 -1,0 16 9 29 16 N 1009,6 10 0,0
19.10.2020 11:00:00 0,8 -0,7 16 9 32 18 NNE 1008,5 10 0,0
19.10.2020 10:00:00 0,5 -0,4 15 8 32 18 NNE 1007,5 10 0,0
19.10.2020 09:00:00 0,2 -0,2 16 9 32 18 N 1006,6 7 0,1
19.10.2020 08:00:00 0,2 -0,2 15 8 32 18 N 1005,7 3,0 0,2
19.10.2020 07:00:00 0,3 -0,3 16 9 32 18 NNE 1004,7 5 0,2
19.10.2020 06:00:00 0,1 -0,2 16 9 40 21 NNE 1003,9 2,0 0,3
19.10.2020 05:00:00 0,4 -0,2 16 9 40 21 NNE 1003,1 9 0,0
19.10.2020 04:00:00 0,4 0,0 16 9 29 16 NNE 1002,2 9 0,1
19.10.2020 03:00:00 0,0 -0,3 16 9 32 18 NNE 1001,2 2,3 0,5
19.10.2020 02:00:00 -0,1 -0,4 21 11 32 18 NNE 1000,3 1,4 0,4
19.10.2020 01:00:00 -0,1 -0,4 18 10 32 18 NNE 999,4 2,2 0,2
19.10.2020 00:00:00 -0,1 -0,4 21 11 40 21 NNE 998,6 2,2 0,4
18.10.2020 23:00:00 -0,1 -0,4 22 12 43 23 NNE 997,8 1,1 0,8
18.10.2020 22:00:00 -0,4 -0,8 21 11 40 21 N 997,0 0,7 1,0
18.10.2020 21:00:00 -0,7 -1,1 24 13 43 23 N 996,4 0,8 0,9
18.10.2020 20:00:00 -0,8 -1,2 24 13 50 27 N 995,8 0,8 0,9
18.10.2020 19:00:00 -1,0 -1,4 22 12 40 21 N 995,7 0,4 2,0
18.10.2020 18:00:00 -1,1 -1,5 24 13 43 23 N 995,9 0,8 2,0
18.10.2020 17:00:00 -1,2 -1,6 26 14 43 23 N 996,1 0,3 2,0
18.10.2020 16:00:00 -1,1 -1,7 24 13 50 27 N 996,4 1,1 1,0
18.10.2020 15:00:00 -1,1 -1,7 24 13 43 23 N 996,8 1,3 0,9
18.10.2020 14:00:00 -0,9 -1,5 24 13 43 23 N 997,0 1,8 0,5
18.10.2020 13:00:00 -0,7 -1,3 21 11 40 21 N 997,1 7 0,0
18.10.2020 12:00:00 -0,8 -1,2 21 11 40 21 N 997,1 2,5 0,3
18.10.2020 11:00:00 -0,4 -1,1 22 12 43 23 NNE 996,9 8 0,0
18.10.2020 10:00:00 -0,5 -0,9 22 12 43 23 NNE 996,4 2,2 0,6
18.10.2020 09:00:00 -0,5 -0,9 21 11 40 21 N 995,6 2,5 0,4
18.10.2020 08:00:00 -1,0 -1,4 21 11 36 19 N 995,1 1,0 0,8
18.10.2020 07:00:00 -0,9 -1,3 22 12 40 21 N 995,1 0,8 1,0
18.10.2020 06:00:00 -0,7 -1,0 22 12 40 21 N 995,4 1,3 2,0
18.10.2020 05:00:00 -0,5 -0,8 26 14 40 21 N 995,8 0,4 2,0
18.10.2020 04:00:00 -0,1 -0,4 21 11 36 19 N 996,0 0,9 0,6
18.10.2020 03:00:00 0,4 -0,2 21 11 32 18 N 996,1 4,1 0,0
18.10.2020 02:00:00 0,9 0,2 18 10 32 18 N 996,1 10 0,0
18.10.2020 01:00:00 1,8 0,6 16 9 32 18 N 995,9 10 0,0
18.10.2020 00:00:00 2,1 1,2 16 9 29 16 NNW 996,1 10 0,0
17.10.2020 23:00:00 2,5 0,4 18 10 25 14 NNW 996,1 10 0,0
17.10.2020 22:00:00 3,0 0,2 16 9 25 14 NW 996,4 10 0,0
17.10.2020 21:00:00 3,9 0,1 13 7 18 10 NW 996,1 10 0,0
17.10.2020 20:00:00 5,2 0,6 9 5 29 16 NW 996,3 10 0,0
17.10.2020 19:00:00 5,8 0,8 11 6 25 14 W 996,6 10 0,0
17.10.2020 18:00:00 6,1 1,0 15 8 29 16 WNW 997,3 10 0,0
17.10.2020 17:00:00 6,5 1,0 13 7 29 16 WNW 997,4 10 0,0
17.10.2020 16:00:00 7,4 1,3 16 9 25 14 W 997,4 10 0,0
17.10.2020 15:00:00 8,4 2,8 9 5 29 16 W 998,0 10 0,0
17.10.2020 14:00:00 8,6 2,6 16 9 29 16 W 998,4 10 0,0
17.10.2020 13:00:00 8,6 3,2 11 6 18 10 W 998,9 10 0,0
17.10.2020 12:00:00 7,8 3,5 9 5 14 8 SW 999,6 10 0,0
17.10.2020 11:00:00 6,8 3,6 9 5 18 10 W 1000,3 10 0,2
17.10.2020 10:00:00 6,6 3,0 11 6 18 10 W 1000,8 10 0,0
17.10.2020 09:00:00 6,4 2,8 11 6 22 12 W 1001,5 10 0,0
17.10.2020 08:00:00 6,3 2,6 13 7 22 12 W 1002,1 10 0,0
17.10.2020 07:00:00 6,0 2,5 13 7 18 10 W 1003,0 10 0,0
17.10.2020 06:00:00 5,5 2,1 11 6 22 12 W 1004,1 10 0,0
17.10.2020 05:00:00 5,0 2,0 13 7 22 12 W 1005,3 10 0,0
17.10.2020 04:00:00 5,0 2,4 4 2 14 8 - 1006,2 10 0,0
17.10.2020 03:00:00 3,7 2,1 5 3 7 4 WSW 1007,5 10 0,0
17.10.2020 02:00:00 3,9 1,8 4 2 7 4 WSW 1008,7 10 0,0
17.10.2020 01:00:00 4,4 1,8 9 5 14 8 WSW 1009,7 10 0,0
17.10.2020 00:00:00 4,4 1,8 11 6 18 10 WSW 1010,8 10 0,0
16.10.2020 23:00:00 5,0 1,7 11 6 18 10 W 1011,7 10 0,0
16.10.2020 22:00:00 4,8 1,6 13 7 18 10 W 1012,5 10 0,0
16.10.2020 21:00:00 4,5 1,5 9 5 14 8 WSW 1013,4 10 0,0
16.10.2020 20:00:00 4,4 1,4 11 6 14 8 WSW 1014,4 10 0,0
16.10.2020 19:00:00 4,9 2,3 8 4 18 10 WSW 1015,1 10 0,0
16.10.2020 18:00:00 4,9 2,6 8 4 14 8 WSW 1015,7 10 0,0
16.10.2020 17:00:00 5,6 2,8 8 4 14 8 WSW 1016,7 10 0,0
16.10.2020 16:00:00 5,9 2,5 15 8 22 12 W 1017,2 10 0,0
16.10.2020 15:00:00 5,8 2,4 9 5 14 8 W 1018,1 10 0,0
16.10.2020 14:00:00 5,7 2,2 5 3 11 6 W 1018,5 10 0,0
16.10.2020 13:00:00 5,3 1,8 8 4 11 6 WNW 1019,0 10 0,0
16.10.2020 12:00:00 4,9 1,6 9 5 11 6 W 1019,4 10 0,0
16.10.2020 11:00:00 4,0 1,2 5 3 11 6 WNW 1019,6 10 0,0
16.10.2020 10:00:00 2,8 0,7 8 4 11 6 W 1020,0 10 0,0
16.10.2020 09:00:00 1,9 0,1 0 0 11 6 N 1019,9 10 0,0
16.10.2020 08:00:00 2,0 0,2 2 1 7 4 - 1019,7 10 0,0
16.10.2020 07:00:00 1,6 0,1 9 5 14 8 NW 1019,6 10 0,0
16.10.2020 06:00:00 1,1 0,2 13 7 14 8 NW 1019,8 10 0,0
16.10.2020 05:00:00 0,7 -0,3 15 8 22 12 NW 1019,8 10 0,0
16.10.2020 04:00:00 1,2 0,0 9 5 18 10 NNW 1019,7 10 0,0
16.10.2020 03:00:00 1,3 -0,2 15 8 22 12 NW 1019,7 10 0,0
16.10.2020 02:00:00 0,9 -0,1 16 9 25 14 NW 1019,8 10 0,0
16.10.2020 01:00:00 1,3 0,4 16 9 25 14 NW 1019,6 10 0,0
16.10.2020 00:00:00 1,8 0,8 16 9 22 12 NNW 1019,5 10 0,0
15.10.2020 23:00:00 1,9 0,9 16 9 25 14 NNW 1019,3 10 0,0
15.10.2020 22:00:00 2,3 1,1 18 10 25 14 NW 1019,0 10 0,0
15.10.2020 21:00:00 2,1 0,9 15 8 22 12 NW 1018,8 10 0,0
15.10.2020 20:00:00 3,3 1,7 16 9 25 14 NW 1018,9 10 0,0
15.10.2020 19:00:00 4,6 2,0 18 10 22 12 NW 1018,8 10 0,0
15.10.2020 18:00:00 4,8 1,6 18 10 25 14 NW 1019,0 10 0,0
15.10.2020 17:00:00 4,8 1,6 15 8 22 12 NW 1019,3 10 0,2
15.10.2020 16:00:00 5,3 0,9 15 8 18 10 NW 1019,8 10 0,0
15.10.2020 15:00:00 5,5 0,9 15 8 18 10 NW 1020,0 10 0,0
15.10.2020 14:00:00 5,3 0,9 13 7 18 10 NNW 1020,6 10 0,0
15.10.2020 13:00:00 5,1 1,2 13 7 18 10 NNW 1021,0 10 0,0
15.10.2020 12:00:00 4,6 1,1 15 8 18 10 NW 1021,2 10 0,0
15.10.2020 11:00:00 4,2 1,5 11 6 18 10 NNW 1021,6 10 0,0
15.10.2020 10:00:00 3,9 0,8 16 9 22 12 NNW 1021,8 10 0,0
15.10.2020 09:00:00 1,6 0,0 13 7 18 10 NNW 1021,8 10 0,0
15.10.2020 08:00:00 1,6 -0,2 11 6 18 10 NW 1021,8 10 0,0
15.10.2020 07:00:00 1,0 -1,0 13 7 - - NNW - 10 -
15.10.2020 06:00:00 1,1 -0,4 11 6 18 10 NNW 1021,9 10 0,0
15.10.2020 05:00:00 1,7 0,2 15 8 22 12 NW 1021,6 10 0,0
15.10.2020 04:00:00 2,7 1,1 16 9 22 12 NNW 1021,6 10 0,0
15.10.2020 03:00:00 2,1 0,8 18 10 22 12 NNW 1021,4 10 0,0
15.10.2020 02:00:00 1,5 0,6 5 3 14 8 NNW 1021,2 10 0,0
15.10.2020 01:00:00 2,5 0,8 8 4 14 8 NW 1020,8 10 0,0
15.10.2020 00:00:00 3,6 1,5 9 5 14 8 NW 1020,6 10 0,0
14.10.2020 23:00:00 4,1 1,5 13 7 18 10 WNW 1020,6 10 0,0
14.10.2020 22:00:00 3,9 1,4 9 5 14 8 WNW 1020,5 10 0,0
14.10.2020 21:00:00 2,2 0,6 4 2 18 10 WNW 1020,6 10 0,0
14.10.2020 20:00:00 3,2 0,9 11 6 18 10 W 1020,7 10 0,0
14.10.2020 19:00:00 3,9 1,3 9 5 18 10 WSW 1021,4 10 0,0
14.10.2020 18:00:00 3,1 0,8 0 0 7 4 N 1022,1 10 0,0
14.10.2020 17:00:00 4,4 1,5 4 2 11 6 W 1022,7 10 0,0
14.10.2020 16:00:00 6,2 1,6 9 5 18 10 W 1023,6 10 0,0

tt = temperature
td = dewpoint
ff = wind speed
fx = gusts
dd = wind direction
ppp = reduced air pressure
vv = visibility
rr = precipitation

Next stations